User: anonymous   Login
Location: Bodest
(46.3000°N, 22.5667°E)
Time: 07:44:51
(UTC+00:00)
Language:

Meteor 1-11 - Orbit

View from above orbital plane
View from above orbital plane
View from above satellite
View from above satellite

Ground track
Ground track

The orbit data is extracted from the following two-line orbital elements,

1 05917U 72022A   22016.84662837  .00000178  00000-0  95891-4 0  9992
2 05917  81.2222  55.3801 0030514 199.0829 160.9201 14.08734602557397
Epoch (UTC): 16 January 2022 20:19:08
Eccentricity: 0.0030514
inclination: 81.2222°
perigee height: 841 km
apogee height: 886 km
right ascension of ascending node: 55.3801°
argument of perigee: 199.0829°
revolutions per day: 14.08734602
mean anomaly at epoch: 160.9201°
orbit number at epoch: 55739

The dashed part of the orbit path shows where the satellite is in the earth's shadow,  

DLR